Somerville, NJ

9:39 PM EDT on May 22, 2018 (GMT -0400)
Somerset

Weather History for KSMQ - April, 2013

Change the Weather History Date:

Tuesday, April 2, 2013

  Actual Average Record
Temperature  
Mean Temperature 35 °F -  
Max Temperature 45 °F 57 °F 82 °F (1967)
Min Temperature 26 °F 34 °F 17 °F (1964)
Degree Days  
Heating Degree Days 30    
Moisture  
Dew Point 12 °F    
Average Humidity 39    
Maximum Humidity 69    
Minimum Humidity 24    
Precipitation  
Precipitation 0.00 in - - ()
Sea Level Pressure  
Sea Level Pressure 30.00 in    
Wind  
Wind Speed 5 mph (WNW)    
Max Wind Speed 18 mph    
Max Gust Speed 26 mph    
Visibility 10 miles    
Events      
Averages and records for this station are not official NWS values.
T = Trace of Precipitation, MM = Missing Value Source: NWS Daily Summary

Daily Weather History Graph

Daily Weather History Graph

Search for Another Location

Airport or City:

Astronomy

Apr. 02, 2013 Rise Set
Actual Time 6:40 AM EDT 7:24 PM EDT
Civil Twilight 6:12 AM EDT 7:52 PM EDT
Nautical Twilight 5:40 AM EDT 8:25 PM EDT
Astronomical Twilight 5:06 AM EDT 8:59 PM EDT
Moon 1:28 AM EDT (4/2) 11:27 AM EDT (4/2)
Length of Visible Light 13h 39m
Length of Day
12h 44m
Waning Gibbous, 56% of the Moon is Illuminated
Apr 2
Waning Gibbous
Apr 3
Last Quarter
Apr 10
New
Apr 18
First Quarter
Apr 25
Full

Hourly Weather History & Observations

Time (EDT) Temp. Windchill Dew Point Humidity Pressure Visibility Wind Dir Wind Speed Gust Speed Precip Events Conditions
12:53 AM 34.0 °F 31.0 °F 12.0 °F 40% 29.94 in 10.0 mi WNW 3.5 mph - N/A   Clear
1:53 AM 30.0 °F - 14.0 °F 51% 29.96 in 10.0 mi Calm Calm - N/A   Clear
2:53 AM 28.9 °F - 16.0 °F 58% 29.94 in 10.0 mi Calm Calm - N/A   Clear
3:53 AM 26.1 °F - 17.1 °F 69% 29.94 in 10.0 mi Calm Calm - N/A   Clear
4:53 AM 26.1 °F - 16.0 °F 66% 29.95 in 10.0 mi Calm Calm - N/A   Clear
5:53 AM 30.0 °F - 14.0 °F 51% 29.96 in 10.0 mi Calm Calm - N/A   Clear
6:53 AM 28.9 °F - 12.9 °F 51% 29.99 in 10.0 mi North - - N/A   Clear
7:53 AM 33.1 °F 28.7 °F 15.1 °F 48% 30.01 in 10.0 mi WNW 4.6 mph - N/A   Clear
8:53 AM 36.0 °F 27.5 °F 14.0 °F 41% 30.02 in 10.0 mi WNW 12.7 mph 20.7 mph N/A   Clear
9:53 AM 37.0 °F 27.0 °F 12.0 °F 36% 30.03 in 10.0 mi NNW 18.4 mph 24.2 mph N/A   Mostly Cloudy
10:53 AM 37.0 °F 28.9 °F 14.0 °F 39% 30.04 in 10.0 mi NW 12.7 mph 24.2 mph N/A   Overcast
11:53 AM 39.0 °F 32.8 °F 10.9 °F 32% 30.02 in 10.0 mi WSW 9.2 mph 24.2 mph N/A   Overcast
12:53 PM 41.0 °F 33.9 °F 12.0 °F 31% 30.00 in 10.0 mi West 12.7 mph 23.0 mph N/A   Mostly Cloudy
1:53 PM 42.1 °F 36.1 °F 10.0 °F 27% 30.00 in 10.0 mi West 10.4 mph 25.3 mph N/A   Mostly Cloudy
2:53 PM 43.0 °F 36.0 °F 9.0 °F 25% 29.99 in 10.0 mi West 13.8 mph 26.5 mph N/A   Mostly Cloudy
3:53 PM 44.1 °F 40.8 °F 10.0 °F 25% 29.98 in 10.0 mi Variable 5.8 mph 25.3 mph N/A   Mostly Cloudy
4:53 PM 43.0 °F 38.8 °F 9.0 °F 25% 29.98 in 10.0 mi Variable 6.9 mph 25.3 mph N/A   Scattered Clouds
5:53 PM 44.1 °F 39.0 °F 9.0 °F 24% 29.99 in 10.0 mi WNW 9.2 mph 20.7 mph N/A   Partly Cloudy
6:53 PM 42.1 °F 35.2 °F 8.1 °F 25% 30.01 in 10.0 mi WNW 12.7 mph 25.3 mph N/A   Partly Cloudy
7:53 PM 39.9 °F 35.8 °F 9.0 °F 28% 30.03 in 10.0 mi West 5.8 mph - N/A   Clear
8:53 PM 39.0 °F - 10.0 °F 30% 30.05 in 10.0 mi Calm Calm - N/A   Clear
9:53 PM 37.9 °F 35.5 °F 12.0 °F 35% 30.07 in 10.0 mi Variable 3.5 mph - N/A   Clear
10:53 PM 37.0 °F 33.3 °F 12.9 °F 37% 30.08 in 10.0 mi Variable 4.6 mph - N/A   Clear
11:53 PM 36.0 °F 32.1 °F 12.9 °F 39% 30.09 in 10.0 mi WNW 4.6 mph - N/A   Clear